Flag for Germany Weather past 2 weeks in Eschweiler, North Rhine-Westphalia, Germany

Now
61 °F

Broken clouds.


Feels Like: 61 °F
Forecast: 52 / 66 °F
Wind: 17 mph from Southwest

Location: Geilenkirchen Airport

Current Time: Jul 28, 2015 at 11:26:14 AM

Latest Report: Jul 28, 2015 at 10:50 AM


Visibility: N/A

Pressure: 29.74 "Hg

Humidity: 68%

Dew point: 50 °F

Location of EschweilerLocation

Historic Weather in Eschweiler — Graph

°F

Eschweiler temperature yesterday

Maximum temperature yesterday: 68 °F (at 4:50 PM)
Minimum temperature yesterday: 57 °F (at 12:50 AM)
Average temperature yesterday: 62 °F

Past Weeks' High & Low Weather Summary

 TemperatureHumidityPressure
High90 °F (Jul 17, 3:50 PM)100% (Jul 16, 5:50 AM)30.12 "Hg (Jul 16, 5:50 AM)
Low57 °F (Jul 20, 4:50 AM)36% (Jul 17, 3:50 PM)29.56 "Hg (Jul 27, 3:50 AM)
Average68 °F73%29.94 "Hg
* Reported Jul 13 9:50 AM — Jul 28 9:50 AM, Eschweiler, Weather by CustomWeather, © 2015

Note: Actual official high and low records may vary slightly from our data, if they occured in-between our weather recording intervals... More about our weather records

Advertising

Eschweiler weather history for previous 24 hours

 ConditionsComfort  
Time TempWeatherWind HumidityBarometerVisibility
9:50 AM
Tue, Jul 28
61 °FBroken clouds.16 mph68%29.71 "HgN/A
8:50 AM59 °FBroken clouds.18 mph72%29.71 "HgN/A
7:50 AM59 °FBroken clouds.15 mph72%29.71 "HgN/A
6:50 AM57 °FClear.16 mph72%29.68 "Hg10 mi
5:50 AM57 °FClear.17 mph72%29.68 "Hg10 mi
4:50 AM57 °FClear.15 mph67%29.68 "Hg10 mi
3:50 AM57 °FClear.14 mph72%29.68 "Hg10 mi
2:50 AM57 °FClear.14 mph72%29.68 "Hg10 mi
1:50 AM57 °FClear.15 mph72%29.68 "Hg10 mi
12:50 AM59 °FClear.18 mph68%29.68 "Hg10 mi
10:50 PM
Mon, Jul 27
63 °FClear.23 mph64%29.68 "Hg10 mi
9:50 PM64 °FPassing clouds.23 mph64%29.68 "HgN/A
8:50 PM64 °FScattered clouds.21 mph73%29.65 "HgN/A
7:50 PM66 °FPartly sunny.14 mph73%29.65 "HgN/A
6:50 PM68 °FBroken clouds.15 mph64%29.62 "HgN/A
5:50 PM68 °FBroken clouds.21 mph60%29.62 "HgN/A
4:50 PM68 °FPartly sunny.16 mph69%29.62 "HgN/A
3:50 PM66 °FSprinkles. Broken clouds.25 mph68%29.62 "HgN/A
2:50 PM64 °FSprinkles. Broken clouds.23 mph73%29.59 "Hg6 mi
1:50 PM64 °FSprinkles. Partly sunny.22 mph73%29.59 "HgN/A
12:50 PM63 °FPartly sunny.22 mph77%29.59 "HgN/A
11:50 AM63 °FPartly sunny.16 mph77%29.59 "HgN/A
Weather by CustomWeather, © 2015

See weather overviewHow to use our weather pages